Miscellaneous Local Product
Issued by NWS North Platte, NE

Home | Current Version | Previous Version | Text Only | Print | Product List | Glossary On
Versions: 1 2 3 4 5 6 7 8 9 10 11 12 13 14 15 16 17 18 19 20 21 22 23 24 25 26 27 28 29 30 31 32 33 34 35 36 37 38 39 40 41 42 43 44 45 46 47 48 49 50
000
AXUS43 KLBF 202110
MISLBF


WESTERN AND NORTH CENTRAL NEBRASKA HOURLY WEATHER ROUNDUP
NATIONAL WEATHER SERVICE NORTH PLATTE NE
400 PM CDT SUN APR 20 2014

***STATIONS NOT REPORTING VARIABLES SUCH AS SKY/WEATHER OR
PRESSURE ARE PROVIDED BY THE NEBRASKA DEPARTMENT OF
ROADS...RAWS...AND APRS NETWORKS...AND ARE NOT UNDER
NATIONAL WEATHER SERVICE QUALITY CONTROL***

...OBSERVATIONS IN AND NEAR THE EASTERN PANHANDLE OF NEBRASKA...

CITY           SKY/WX    TMP DP  RH WIND       PRES   REMARKS
PINE RIDGE     SUNNY     76  29  17 W14       29.91F
CHADRON        MOSUNNY   78  34  20 NW15G25   29.91F
ALLIANCE       SUNNY     77  30  17 W10G16    29.93F
SIDNEY         SUNNY     75  35  23 VRB5      29.96F
WHITECLAY        N/A     76  35  22 W10         N/A
CRESCENT LAKE    N/A     79  36  20 SW9G16      N/A
LISCO            N/A     79  24  13 W8          N/A
BIG SPRINGS      N/A     74  48  39 SE6         N/A
LEWELLEN         N/A     84  34  16 CALM        N/A
$$

...OBSERVATIONS IN SOUTHWEST NEBRASKA AND FAR NORTHEAST COLORADO...

CITY           SKY/WX    TMP DP  RH WIND       PRES   REMARKS
WRAY           FAIR      69  49  48 MISG      29.98F
HOLYOKE        FAIR      73  43  33 SE7       29.97F
IMPERIAL       CLOUDY    72  47  40 VRB5      29.95F
OGALLALA       MOSUNNY   75  41  28 S3        29.94F
NORTH PLATTE   PTSUNNY   73  50  44 VRB7      29.93F
MCCOOK         PTSUNNY   78  50  37 S13       29.92F
LEXINGTON      PTSUNNY   76  54  46 S13       29.93F
PAXTON           N/A     66  53  64 CALM        N/A
SUTHERLAND       N/A     73  52  46 S5          N/A
MEDICINE CREEK   N/A     77  55  46 SW3         N/A
GOTHENBURG       N/A     74  54  49 CALM        N/A
CALLAWAY         N/A     70  53  55 SE6         N/A
$$

...OBSERVATIONS IN NORTH CENTRAL NEBRASKA...

CITY           SKY/WX    TMP DP  RH WIND       PRES   REMARKS
VALENTINE      SUNNY     80  40  23 S15       29.89F
THEDFORD       SUNNY     80  38  22 SW3       29.92F
AINSWORTH      SUNNY     80  40  24 S9G18     29.91F
O`NEILL        MOSUNNY   79  40  24 SW6       29.91F
ORD            PTSUNNY   77  50  38 VRB7      29.91F
BROKEN BOW     PTSUNNY   72  50  45 S10       29.93F
BROWNLEE         N/A     83  42  22 S10         N/A
SPRINGVIEW       N/A     82  45  26 SE3G12      N/A
DUNNING          N/A     79  46  31 S12         N/A
BREWSTER         N/A     79  51  36 S10         N/A
ROSE             N/A     81  52  35 SE6         N/A
NEWPORT          N/A     78  43  28 S7          N/A
COMSTOCK         N/A     81  52  36 W6          N/A
CHAMBERS         N/A     80  51  36 S7G16       N/A
EWING            N/A     66  57  74 CALM        N/A
$$

...SOME WEATHER OBSERVATIONS FROM AROUND THE REGION...

CITY           SKY/WX    TMP DP  RH WIND       PRES   REMARKS
DENVER         PTSUNNY   70  37  29 S5        30.03F
LARAMIE        CLOUDY    58  29  33 NW20G30   30.13R
CHEYENNE       PTSUNNY   67  23  19 NW13G23   30.05F
SCOTTSBLUFF    MOSUNNY   79  31  17 MISG      29.95F
RAPID CITY     PTSUNNY   69  36  29 NW31G37   29.94S
PIERRE         SUNNY     79  37  22 S14       29.85F
WINNER         FAIR      82  42  24 S13       29.88F
SIOUX FALLS    MOSUNNY   79  46  31 E12       29.90F
OMAHA          CLOUDY    83  49  30 VRB5      29.91F
GRAND ISLAND   CLOUDY    75  55  49 W6        29.94F
KANSAS CITY    CLOUDY    74  52  46 S14       30.03F
WICHITA        LGT RAIN  67  59  75 SE9       30.03F
HAYS           CLOUDY    75  55  50 SE20G30   29.93F
LIBERAL        MOSUNNY   79  48  34 S25G31    29.92F
GOODLAND       CLOUDY    72  46  39 CALM      29.95F
$$



USA.gov is the U.S. government's official web portal to all federal, state and local government web resources and services.